Regional Weather Roundup
Issued by NWS

Current Version | Previous Version | Text Only | Print | Product List | Glossary Off
Versions: 1 2 3 4 5 6 7 8 9 10 11 12 13 14 15 16 17 18 19 20 21 22 23 24 25 26 27 28 29 30 31 32 33 34 35 36 37 38 39 40 41 42 43 44 45 46 47 48 49 50

000
ASUS44 KBMX 262310
RWRAL

ALABAMA REGIONAL WEATHER ROUNDUP
NATIONAL WEATHER SERVICE BIRMINGHAM AL
500 PM CST THU FEB 26 2015

NOTE: "FAIR" INDICATES FEW OR NO CLOUDS BELOW 12,000 FEET
WITH NO SIGNIFICANT WEATHER AND/OR OBSTRUCTIONS TO VISIBILITY.

THE REMARK "TC" DENOTES TEMPERATURE IN DEGREES CELSIUS.

ALZ001>011-014-016>018-020-270000-
NORTH ALABAMA

CITY           SKY/WX    TMP DP  RH WIND       PRES   REMARKS
MUSCLE SHOALS  MOCLDY    43  29  57 W9        30.13R
HUNTSVILLE     MOCLDY    40  28  62 W6        30.11R
DECATUR        CLOUDY    39  30  70 MISG      30.12R
HALEYVILLE       N/A     39  28  65 CALM      30.14R
GADSDEN        PTCLDY    37  27  65 N6        30.10R WCI  33
$$

ALZ012-013-022-023-030>036-040>044-270000-
WEST CENTRAL ALABAMA

CITY           SKY/WX    TMP DP  RH WIND       PRES   REMARKS
TUSCALOOSA     PTCLDY    44  29  55 NW10      30.16R
$$

ALZ015-024>027-033>036-040>044-270000-
CENTRAL ALABAMA

CITY           SKY/WX    TMP DP  RH WIND       PRES   REMARKS
BIRMINGHAM     PTCLDY    38  31  76 NW7       30.14R WCI  33
MONTGOMERY     MOCLDY    43  32  65 N9        30.12R
SHELBY CO ARPT PTCLDY    39  30  70 NW6       30.12R WCI  35
MAXWELL AFB    CLOUDY    40  32  73 N13       30.11R WCI  33
GREENVILLE     NOT AVBL
$$

ALZ019-021-028-029-037-038-045>048-270000-
EAST CENTRAL ALABAMA

CITY           SKY/WX    TMP DP  RH WIND       PRES   REMARKS
ANNISTON       CLOUDY    38  30  73 NW3       30.11R
ALEXANDER CITY CLOUDY    39  30  70 NW12      30.09R WCI  32
AUBURN         CLOUDY    37  28  70 N10G16    30.08R WCI  30
$$

ALZ051>064-270000-
SOUTHWEST ALABAMA

CITY           SKY/WX    TMP DP  RH WIND       PRES   REMARKS
MOBILE         PTCLDY    46  34  62 N8        30.09R
BROOKLEY FIELD PTCLDY    49  35  58 N10       30.11R
EVERGREEN      PTCLDY    46  33  60 N12       30.09R
$$

ALZ049-050-065>069-270000-
SOUTHEAST ALABAMA

CITY           SKY/WX    TMP DP  RH WIND       PRES   REMARKS
DOTHAN         CLOUDY    42  35  76 N9        30.09R
OZARK          CLOUDY    42  35  76 NW7       30.07R
TROY           CLOUDY    42  34  73 NW12      30.09R
EUFAULA        CLOUDY    46  37  71 NW5       30.04R
$$



USA.gov is the U.S. government's official web portal to all federal, state and local government web resources and services.